Home > Weather > Schweinfurt > Past weeks

Flag for Germany Weather for the Past 2 Weeks in Schweinfurt, Bavaria, Germany

Now
39 °F

Clear.


Feels Like: 33 °F
Forecast: 40 / 47 °F
Wind: 8 mph from South

Location: Illesheim

Current Time: Feb 8, 2016 at 6:13:54 AM

Latest Report: Feb 8, 2016 at 4:58 AM


Visibility: N/A

Pressure: 29.76 "Hg

Humidity: 80%

Dew point: 33 °F

Location of SchweinfurtLocation

Historic Weather in Schweinfurt — Graph

°F

Schweinfurt Temperature Yesterday

Maximum temperature yesterday: 50 °F (at 12:58 PM)
Minimum temperature yesterday: 36 °F (at 5:58 AM)
Average temperature yesterday: 43 °F

High & Low Weather Summary for the Past Weeks

 TemperatureHumidityPressure
High57 °F (Jan 27, 1:58 PM)100% (Jan 25, 12:58 AM)30.60 "Hg (Jan 25, 12:58 AM)
Low32 °F (Jan 24, 5:58 AM)53% (Jan 27, 3:58 PM)29.64 "Hg (Feb 7, 11:58 AM)
Average43 °F82%30.18 "Hg
* Reported Jan 24 3:58 AM — Feb 8 3:58 AM, Schweinfurt, Weather by CustomWeather, © 2016

Note: Actual official high and low records may vary slightly from our data, if they occured in-between our weather recording intervals... More about our weather records

Advertising

Schweinfurt Weather History for the Previous 24 Hours

 ConditionsComfort  
Time TempWeatherWind HumidityBarometerVisibility
3:58 AM
Mon, Feb 8
39 °FClear.8 mph81%29.78 "HgN/A
2:58 AM40 °FClear.8 mph80%29.80 "HgN/A
1:58 AM41 °FClear.10 mph76%29.82 "HgN/A
12:58 AM42 °FClear.10 mph72%29.83 "HgN/A
11:58 PM
Sun, Feb 7
43 °FOvercast.13 mph71%29.85 "HgN/A
10:58 PM43 °FPartly cloudy.12 mph76%29.85 "HgN/A
9:58 PM43 °FClear.6 mph76%29.85 "HgN/A
8:58 PM43 °FClear.5 mph76%29.84 "HgN/A
7:58 PM44 °FPassing clouds.13 mph77%29.83 "HgN/A
6:58 PM43 °FMostly cloudy.10 mph81%29.81 "HgN/A
5:58 PM45 °FMostly cloudy.9 mph78%29.78 "HgN/A
4:58 PM46 °FMore clouds than sun.13 mph82%29.75 "HgN/A
3:58 PM49 °FMostly cloudy.14 mph76%29.71 "HgN/A
2:58 PM49 °FPassing clouds.12 mph72%29.70 "HgN/A
1:58 PM47 °FScattered clouds.6 mph72%29.67 "HgN/A
12:58 PM50 °FScattered clouds.1 mph63%29.64 "HgN/A
11:58 AM48 °FOvercast.2 mph62%29.64 "HgN/A
10:58 AM46 °FPassing clouds.2 mph66%29.65 "HgN/A
9:58 AM46 °FSunny.6 mph61%29.65 "HgN/A
8:58 AM42 °FPartly sunny.5 mph71%29.69 "HgN/A
7:58 AM40 °FOvercast.No wind75%29.70 "HgN/A
6:58 AM37 °FOvercast.1 mph81%29.70 "HgN/A
Weather by CustomWeather, © 2016

See weather overviewHow to use our weather pages